TimeEST,TemperatureF,Dew PointF,Humidity,Sea Level PressureIn,VisibilityMPH,Wind Direction,Wind SpeedMPH,Gust SpeedMPH,PrecipitationIn,Events,Conditions,WindDirDegrees,DateUTC
12:53 AM,37.9,30.0,73,29.96,10.0,NW,4.6,-,N/A,,Overcast,320,2012-11-05 05:53:00
1:53 AM,39.0,30.0,70,29.96,10.0,NW,4.6,-,N/A,,Overcast,310,2012-11-05 06:53:00
2:53 AM,39.0,30.0,70,29.95,10.0,NNW,4.6,-,N/A,,Overcast,330,2012-11-05 07:53:00
3:53 AM,39.0,30.0,70,29.95,10.0,NNE,3.5,-,N/A,,Overcast,30,2012-11-05 08:53:00
4:53 AM,39.0,30.9,73,29.96,10.0,Variable,3.5,-,N/A,,Overcast,0,2012-11-05 09:53:00
5:53 AM,37.9,30.9,76,29.97,10.0,Calm,Calm,-,N/A,,Overcast,0,2012-11-05 10:53:00
6:53 AM,39.0,28.0,65,29.99,10.0,North,5.8,-,N/A,,Overcast,360,2012-11-05 11:53:00
7:53 AM,39.0,26.1,60,30.00,10.0,North,6.9,-,N/A,,Overcast,10,2012-11-05 12:53:00
8:53 AM,41.0,25.0,53,30.01,10.0,NNW,13.8,21.9,N/A,,Mostly Cloudy,340,2012-11-05 13:53:00
9:53 AM,41.0,23.0,49,30.01,10.0,North,9.2,-,N/A,,Clear,360,2012-11-05 14:53:00
10:53 AM,43.0,23.0,45,30.00,10.0,NNW,10.4,19.6,N/A,,Clear,330,2012-11-05 15:53:00
11:53 AM,44.1,24.1,45,29.99,10.0,North,11.5,18.4,N/A,,Clear,10,2012-11-05 16:53:00
12:53 PM,46.0,23.0,40,29.97,10.0,NNW,10.4,19.6,N/A,,Clear,340,2012-11-05 17:53:00
1:53 PM,46.0,23.0,40,29.97,10.0,North,8.1,-,N/A,,Clear,350,2012-11-05 18:53:00
2:53 PM,46.0,23.0,40,29.98,10.0,NNW,11.5,-,N/A,,Clear,340,2012-11-05 19:53:00
3:53 PM,44.1,23.0,43,30.00,10.0,North,6.9,-,N/A,,Clear,360,2012-11-05 20:53:00
4:53 PM,41.0,23.0,49,30.03,10.0,North,5.8,-,N/A,,Clear,10,2012-11-05 21:53:00
5:53 PM,37.9,21.9,53,30.06,10.0,NNW,4.6,-,N/A,,Clear,330,2012-11-05 22:53:00
6:53 PM,37.9,21.9,53,30.09,10.0,NNW,8.1,-,N/A,,Clear,340,2012-11-05 23:53:00
7:53 PM,35.1,21.9,59,30.11,10.0,NNW,6.9,-,N/A,,Clear,330,2012-11-06 00:53:00
8:53 PM,34.0,19.9,56,30.13,10.0,North,5.8,-,N/A,,Clear,360,2012-11-06 01:53:00
9:53 PM,33.1,19.0,56,30.14,10.0,North,5.8,-,N/A,,Clear,360,2012-11-06 02:53:00
10:53 PM,30.9,19.0,61,30.14,10.0,North,3.5,-,N/A,,Clear,360,2012-11-06 03:53:00
11:53 PM,30.9,19.0,61,30.16,10.0,North,4.6,-,N/A,,Clear,360,2012-11-06 04:53:00